STARLINK-2256 (48598 NORAD) Tracking and Keplerian Element Data

This shows tracking and keplerian element data for the satellite.

Feedback or suggestion? Click here.




ElementValue
Catalog48598
NameSTARLINK-2256
Epoch Orbit2335
Epoch Day288.01001035
Epoch Year2021
RAAN154.2853
Inclination53.0556
Eccentricity0.0001569
Argument of Perigee78.7116
Mean Anonmoly281.4049
Mean Motion15.06382444
Decay Rate-1.41E-05
L11 48598U 21041AX 21288.01001035 -.00001410 00000-0 -75824-4 0 9991
L22 48598 53.0556 154.2853 0001569 78.7116 281.4049 15.06382444 23357

Live tracking and technical data element details for STARLINK-2256 (NORAD 48598). STARLINK-2256 can be tracked NOW for your location showing map with azimuth and elevation plus other details from your city location.

Track the satellite on the map from your city or location and see movement details for azimuth, elevation, latitude, longitude, range, height, and movement on the map or in text.







IsCatalogInMostPopularTable: catalog: 48598, numindb: 40
Update: records affected: 1



GetName: 48598 STARLINK-2256

Hit Count: updated at: Tue, 19 Oct 2021 09:29:45 GMT